Flag for Belgium Weather past 2 weeks in Charleroi, Belgium

Now
70 °F

Passing clouds.


Feels Like: 70 °F
Forecast: 58 / 79 °F
Wind: 3 mph from West

Location: Charleroi / Gosselies

Current Time: Jul 26, 2014 at 10:04:58 PM

Latest Report: Jul 26, 2014 at 9:20 PM


Visibility: N/A

Pressure: 29.98 "Hg

Humidity: 69%

Dew point: 59 °F

Location of CharleroiLocation

Historic Weather in Charleroi — Graph

°F

Charleroi temperature yesterday

Maximum temperature yesterday: 77 °F (at 1:50 PM)
Minimum temperature yesterday: 57 °F (at 4:20 AM)
Average temperature yesterday: 66 °F

Past Weeks' High & Low Weather Summary

 TemperatureHumidityPressure
High91 °F (Jul 18, 4:20 PM)100% (Jul 21, 1:50 AM)30.21 "Hg (Jul 21, 1:50 AM)
Low54 °F (Jul 15, 4:50 AM)34% (Jul 18, 4:20 PM)29.77 "Hg (Jul 13, 3:20 PM)
Average68 °F73%29.99 "Hg
* Reported Jul 11 8:20 PM — Jul 26 8:50 PM, Charleroi, Weather by CustomWeather, © 2014

Note: Actual official high and low records may vary slightly from our data, if they occured in-between our weather recording intervals... More about our weather records

Advertising

Charleroi weather history for previous 24 hours

 ConditionsComfort  
Time TempWeatherWind HumidityBarometerVisibility
8:50 PM
Jul 26
72 °FPassing clouds.5 mph65%29.98 "HgN/A
8:20 PM73 °FPassing clouds.6 mph61%29.98 "HgN/A
7:50 PM75 °FPassing clouds.6 mph57%29.98 "HgN/A
7:20 PM73 °FPassing clouds.3 mph61%29.98 "HgN/A
6:50 PM73 °FPassing clouds.7 mph61%29.98 "HgN/A
6:20 PM75 °FScattered clouds.6 mph54%29.98 "HgN/A
5:50 PM75 °FPassing clouds.6 mph54%29.95 "HgN/A
5:20 PM75 °FPassing clouds.6 mph57%29.95 "HgN/A
4:50 PM73 °FScattered clouds.5 mph57%29.98 "HgN/A
4:20 PM75 °FPassing clouds.3 mph54%29.98 "HgN/A
3:50 PM73 °FPassing clouds.3 mph61%29.98 "HgN/A
3:20 PM73 °FScattered clouds.5 mph57%29.98 "HgN/A
2:50 PM72 °FScattered clouds.5 mph61%29.98 "HgN/A
2:20 PM73 °FScattered clouds.5 mph57%29.98 "HgN/A
1:50 PM70 °FScattered clouds.5 mph64%29.98 "HgN/A
1:20 PM72 °FBroken clouds.5 mph61%29.98 "HgN/A
12:50 PM70 °FBroken clouds.2 mph64%29.98 "HgN/A
12:20 PM72 °FScattered clouds.2 mph69%29.98 "HgN/A
11:50 AM70 °FScattered clouds.5 mph69%29.98 "HgN/A
11:20 AM68 °FBroken clouds.2 mph73%29.98 "HgN/A
10:50 AM68 °FScattered clouds.3 mph73%29.98 "HgN/A
10:20 AM66 °FPartly sunny.2 mph78%29.98 "Hg5 mi
9:50 AM64 °FBroken clouds.3 mph83%29.98 "Hg4 mi
9:20 AM64 °FFog.3 mph88%29.98 "Hg2 mi
8:50 AM64 °FFog.3 mph83%29.98 "Hg2 mi
8:20 AM63 °FFog.6 mph88%29.95 "Hg2 mi
7:50 AM63 °FFog.6 mph88%29.95 "Hg2 mi
7:20 AM63 °FFog.3 mph88%29.95 "Hg2 mi
6:50 AM63 °FFog.3 mph88%29.95 "Hg2 mi
6:20 AM63 °FFog.3 mph88%29.95 "Hg2 mi
5:50 AM63 °FFog.5 mph88%29.95 "Hg2 mi
5:20 AM63 °FFog.5 mph88%29.95 "Hg3 mi
4:50 AM63 °FPassing clouds.5 mph88%29.95 "Hg4 mi
4:20 AM63 °FPassing clouds.5 mph88%29.95 "Hg5 mi
3:50 AM63 °FPassing clouds.6 mph88%29.95 "Hg5 mi
3:20 AM63 °FPassing clouds.5 mph88%29.95 "Hg5 mi
2:50 AM63 °FPassing clouds.3 mph88%29.95 "Hg5 mi
2:20 AM63 °FPassing clouds.3 mph88%29.95 "HgN/A
1:50 AM63 °FPassing clouds.5 mph88%29.95 "HgN/A
1:20 AM63 °FPassing clouds.5 mph88%29.95 "HgN/A
12:50 AM63 °FPassing clouds.5 mph88%29.95 "HgN/A
12:20 AM63 °FPassing clouds.6 mph88%29.95 "HgN/A
11:50 PM
Jul 25
63 °FPassing clouds.6 mph88%29.95 "HgN/A
11:20 PM64 °FPassing clouds.8 mph83%29.95 "HgN/A
10:50 PM64 °FPassing clouds.7 mph78%29.95 "HgN/A
10:20 PM64 °FPassing clouds.7 mph78%29.95 "HgN/A
Weather by CustomWeather, © 2014

See weather overviewHow to use our weather pages